TimeEST,TemperatureF,Dew PointF,Humidity,Sea Level PressureIn,VisibilityMPH,Wind Direction,Wind SpeedMPH,Gust SpeedMPH,PrecipitationIn,Events,Conditions,WindDirDegrees,DateUTC
12:15 AM,8.6,3.2,79,30.08,4.0,SSW,3.5,-,N/A,Snow,Light Snow,200,2014-02-07 05:15:00
12:35 AM,8.6,3.2,79,30.08,3.0,SW,3.5,-,N/A,Snow,Light Snow,220,2014-02-07 05:35:00
12:55 AM,8.8,3.4,79,30.08,4.0,SW,3.5,-,N/A,Snow,Light Snow,220,2014-02-07 05:55:00
1:15 AM,8.6,3.2,79,30.07,4.0,SW,4.6,-,N/A,Snow,Light Snow,220,2014-02-07 06:15:00
1:35 AM,9.5,4.5,80,30.07,2.5,SW,4.6,-,N/A,Snow,Light Snow,220,2014-02-07 06:35:00
1:55 AM,10.0,4.6,79,30.07,3.0,SW,5.8,-,N/A,Snow,Light Snow,230,2014-02-07 06:55:00
2:15 AM,9.7,4.5,79,30.07,5.0,SSW,4.6,-,N/A,Snow,Light Snow,200,2014-02-07 07:15:00
2:35 AM,10.6,5.5,80,30.07,7.0,SW,8.1,-,N/A,Snow,Light Snow,230,2014-02-07 07:35:00
2:55 AM,11.3,5.7,78,30.06,10.0,SW,11.5,-,N/A,,Overcast,220,2014-02-07 07:55:00
3:15 AM,12.4,5.9,75,30.06,10.0,SW,10.4,-,N/A,Snow,Light Snow,220,2014-02-07 08:15:00
3:35 AM,12.9,5.7,73,30.06,10.0,SW,11.5,-,N/A,Snow,Light Snow,230,2014-02-07 08:35:00
3:55 AM,12.9,5.5,72,30.06,7.0,SW,8.1,-,N/A,Snow,Light Snow,220,2014-02-07 08:55:00
4:15 AM,12.2,5.4,74,30.05,10.0,South,6.9,-,N/A,,Overcast,190,2014-02-07 09:15:00
4:35 AM,11.8,5.2,75,30.05,10.0,South,6.9,-,N/A,,Overcast,170,2014-02-07 09:35:00
4:55 AM,11.3,4.8,75,30.06,10.0,South,5.8,-,N/A,,Scattered Clouds,190,2014-02-07 09:55:00
5:15 AM,11.7,5.0,75,30.05,10.0,SSW,8.1,-,N/A,,Clear,210,2014-02-07 10:15:00
5:35 AM,11.8,5.0,74,30.05,10.0,SSW,5.8,-,N/A,,Clear,200,2014-02-07 10:35:00
5:55 AM,11.8,5.0,74,30.06,10.0,SSW,3.5,-,N/A,,Clear,210,2014-02-07 10:55:00
6:15 AM,11.3,4.8,75,30.06,10.0,South,4.6,-,N/A,,Scattered Clouds,190,2014-02-07 11:15:00
6:35 AM,11.7,4.8,74,30.06,10.0,South,3.5,-,N/A,,Clear,190,2014-02-07 11:35:00
6:55 AM,12.2,5.2,73,30.07,10.0,South,6.9,-,N/A,,Scattered Clouds,170,2014-02-07 11:55:00
7:15 AM,12.2,5.0,73,30.07,10.0,South,6.9,-,N/A,,Mostly Cloudy,170,2014-02-07 12:15:00
7:35 AM,11.1,4.5,75,30.08,10.0,SSE,8.1,-,N/A,,Overcast,160,2014-02-07 12:35:00
7:55 AM,11.7,4.1,72,30.09,10.0,SSE,8.1,-,N/A,,Overcast,150,2014-02-07 12:55:00
8:15 AM,13.1,4.8,70,30.09,10.0,South,5.8,-,N/A,,Overcast,190,2014-02-07 13:15:00
8:35 AM,13.5,5.0,69,30.09,7.0,South,6.9,-,N/A,,Overcast,190,2014-02-07 13:35:00
8:55 AM,13.5,5.4,70,30.09,10.0,SSW,6.9,-,N/A,,Overcast,200,2014-02-07 13:55:00
9:15 AM,14.9,6.6,70,30.09,10.0,South,6.9,-,N/A,,Overcast,190,2014-02-07 14:15:00
9:35 AM,15.8,6.8,68,30.10,10.0,South,6.9,-,N/A,,Overcast,170,2014-02-07 14:35:00
9:55 AM,17.2,7.0,64,30.09,10.0,South,8.1,-,N/A,,Overcast,170,2014-02-07 14:55:00
10:15 AM,17.6,7.2,64,30.09,10.0,South,6.9,-,N/A,,Overcast,180,2014-02-07 15:15:00
10:35 AM,18.5,7.3,62,30.09,10.0,SSW,5.8,-,N/A,,Overcast,200,2014-02-07 15:35:00
10:55 AM,19.2,7.5,60,30.09,10.0,SSW,9.2,-,N/A,,Overcast,200,2014-02-07 15:55:00
11:15 AM,19.4,6.8,58,30.09,10.0,SSW,10.4,-,N/A,,Overcast,210,2014-02-07 16:15:00
11:35 AM,19.4,6.6,58,30.08,10.0,SW,9.2,17.3,N/A,,Overcast,230,2014-02-07 16:35:00
11:55 AM,19.4,4.6,53,30.08,7.0,WSW,15.0,24.2,N/A,,Overcast,250,2014-02-07 16:55:00
12:15 PM,19.4,5.5,55,30.07,10.0,WSW,10.4,-,N/A,,Overcast,250,2014-02-07 17:15:00
12:35 PM,19.8,7.2,58,30.07,10.0,SW,12.7,-,N/A,,Overcast,230,2014-02-07 17:35:00
12:55 PM,19.8,7.5,59,30.07,5.0,SW,11.5,-,N/A,Snow,Light Snow,230,2014-02-07 17:55:00
1:15 PM,20.3,7.5,58,30.06,10.0,SW,11.5,17.3,N/A,,Overcast,230,2014-02-07 18:15:00
1:35 PM,20.1,7.3,58,30.05,7.0,WSW,10.4,-,N/A,Snow,Light Snow,240,2014-02-07 18:35:00
1:55 PM,20.3,5.9,54,30.05,10.0,SW,10.4,21.9,N/A,,Overcast,230,2014-02-07 18:55:00
2:15 PM,21.0,5.9,52,30.05,10.0,SSW,11.5,21.9,N/A,,Overcast,210,2014-02-07 19:15:00
2:35 PM,21.2,6.3,53,30.04,10.0,SW,11.5,17.3,N/A,,Overcast,230,2014-02-07 19:35:00
2:55 PM,20.8,6.1,53,30.04,10.0,SW,8.1,-,N/A,,Overcast,230,2014-02-07 19:55:00
3:15 PM,21.2,7.3,55,30.04,10.0,SSW,11.5,16.1,N/A,,Overcast,210,2014-02-07 20:15:00
3:35 PM,20.3,6.8,56,30.04,10.0,SW,8.1,-,N/A,,Mostly Cloudy,220,2014-02-07 20:35:00
3:55 PM,20.8,6.8,55,30.04,10.0,SW,9.2,-,N/A,,Mostly Cloudy,220,2014-02-07 20:55:00
4:15 PM,19.9,6.8,57,30.04,10.0,SW,6.9,-,N/A,,Scattered Clouds,230,2014-02-07 21:15:00
4:35 PM,19.8,6.4,56,30.04,10.0,SW,5.8,-,N/A,,Scattered Clouds,230,2014-02-07 21:35:00
4:55 PM,19.8,6.6,57,30.04,10.0,SW,5.8,-,N/A,,Mostly Cloudy,230,2014-02-07 21:55:00
5:15 PM,18.1,5.5,58,30.04,10.0,SW,4.6,-,N/A,,Scattered Clouds,230,2014-02-07 22:15:00
5:35 PM,17.6,5.5,59,30.05,10.0,WSW,4.6,-,N/A,,Clear,240,2014-02-07 22:35:00
5:55 PM,16.2,5.0,62,30.06,10.0,SW,6.9,-,N/A,,Clear,230,2014-02-07 22:55:00
6:15 PM,16.0,5.2,62,30.07,10.0,WSW,5.8,-,N/A,,Clear,240,2014-02-07 23:15:00
6:35 PM,15.8,4.6,61,30.08,10.0,WSW,5.8,-,N/A,,Clear,240,2014-02-07 23:35:00
6:55 PM,15.8,5.5,64,30.08,10.0,SW,5.8,-,N/A,,Clear,220,2014-02-07 23:55:00
7:15 PM,15.3,3.9,61,30.07,10.0,SSW,4.6,-,N/A,,Clear,210,2014-02-08 00:15:00
7:35 PM,15.8,4.6,61,30.08,10.0,SSW,5.8,-,N/A,,Clear,210,2014-02-08 00:35:00
7:55 PM,15.4,3.6,59,30.08,10.0,SSW,3.5,-,N/A,,Scattered Clouds,200,2014-02-08 00:55:00
8:15 PM,14.5,3.7,62,30.08,10.0,SSW,5.8,-,N/A,,Scattered Clouds,200,2014-02-08 01:15:00
8:35 PM,15.8,3.0,57,30.08,10.0,SW,5.8,-,N/A,,Clear,230,2014-02-08 01:35:00
8:55 PM,13.6,1.9,60,30.08,10.0,East,4.6,-,N/A,,Clear,100,2014-02-08 01:55:00
9:15 PM,7.9,1.6,75,30.08,10.0,SE,3.5,-,N/A,,Clear,130,2014-02-08 02:15:00
9:35 PM,11.3,3.6,71,30.08,10.0,Calm,Calm,-,N/A,,Clear,0,2014-02-08 02:35:00
9:55 PM,3.6,-2.0,78,30.08,10.0,SSE,3.5,-,N/A,,Clear,150,2014-02-08 02:55:00
10:15 PM,6.6,1.6,80,30.08,10.0,SSE,3.5,-,N/A,,Clear,150,2014-02-08 03:15:00
10:35 PM,13.8,3.4,63,30.07,10.0,South,3.5,-,N/A,,Clear,190,2014-02-08 03:35:00
10:55 PM,13.8,1.2,57,30.08,10.0,WSW,4.6,-,N/A,,Clear,240,2014-02-08 03:55:00
11:15 PM,9.3,1.0,69,30.08,10.0,WSW,8.1,-,N/A,,Clear,250,2014-02-08 04:15:00
11:35 PM,14.0,1.9,59,30.09,10.0,WSW,8.1,-,N/A,,Clear,250,2014-02-08 04:35:00
11:55 PM,14.2,1.2,56,30.09,10.0,WSW,10.4,18.4,N/A,,Scattered Clouds,250,2014-02-08 04:55:00